Weather in Ukolok

Russia / Arkhangel'skaya Oblast'     62°20′14″N   41°52′44″E
temp.,
°C
wind,
m/s
gust,
m/s
humid.,
%
clouds,
%
prec.,
mm/h
press.,
hPa
HPBL,
m
1 august, sun
sun100:00+12w289741 0.3 998248
03:00+12wsw289793 0.3 1000227
06:00+12wsw3896100 0.0 1001261
09:00+17wsw35787 0.0 1003473
12:00+22sw45528 0.0 10031525
15:00+23sw464483 0.0 10032177
18:00+21ssw365995 0.0 10041018
21:00+15sse3889100 0.4 1003153
2 august, mon
mon200:00+14sw41097100 2.1 1003377
03:00+13sw3109942 2.3 1003364
06:00+14wsw4119653 0.0 1004510
09:00+19sw476839 0.0 1005698
12:00+22sw4553100 0.0 10051730
15:00+23wsw3649100 0.0 10051751
18:00+23wsw25536 0.0 10051149
21:00+16ese117630 0.0 100411
3 august, tue
tue300:00+15ese268241 0.0 1003104
03:00+15se31285100 0.1 1001317
06:00+16se41297100 0.8 999459
09:00+18sse4109799 2.1 997755
12:00+21ssw61181100 0.4 9981145
15:00+20wsw61063100 0.4 10001341
18:00+20wsw496020 0.0 10011433
21:00+16sw277999 0.0 1002167
4 august, wed
wed400:00+13sw289487 0.0 1003159
03:00+12sw28945 0.0 1004157
06:00+14sw310800 0.0 1005380
09:00+17wsw586044 0.0 10061250
12:00+14wsw5968100 0.0 1009951
15:00+14wsw496881 0.0 1011923
18:00+13w487552 0.2 1012898
21:00+11nw397085 0.2 1015687
5 august, thu
thu500:00+10nw277243 0.0 1016535
03:00+6wnw26935 0.0 1018125
06:00+8wnw25775 0.0 1020184
09:00+14nw23535 0.0 10201031
12:00+18nnw233946 0.0 10202075
15:00+18nnw2236100 0.0 10202179
18:00+14ne2359100 0.0 102083
21:00+13se2562100 0.0 1020102